Regional Weather Roundup
Issued by NWS

Home | Current Version | Previous Version | Text Only | Print | Product List | Glossary On
Versions: 1 2 3 4 5 6 7 8 9 10 11 12 13 14 15 16 17 18 19 20 21 22 23 24 25 26 27 28 29 30 31 32 33 34 35 36 37 38 39 40 41 42 43 44 45 46 47 48 49 50
000
ASUS46 KPQR 291210
RWROR

OREGON REGIONAL WEATHER ROUNDUP
NATIONAL WEATHER SERVICE PORTLAND OR
500 AM PDT SUN MAR 29 2015

NOTE: "FAIR" INDICATES FEW OR NO CLOUDS BELOW 12,000 FEET WITH
NO SIGNIFICANT WEATHER AND/OR OBSTRUCTIONS TO VISIBILITY.

ORZ001>013-291300-
NORTHWEST OREGON


CITY           SKY/WX    TMP DP  RH WIND       PRES   REMARKS
ASTORIA        PTCLDY    44  42  93 MISG      30.27F
6HR MIN TEMP:  44; 6HR MAX TEMP:  50;

NEWPORT        CLEAR     41  39  93 CALM      30.33R FOG
PORTLAND       CLOUDY    48  45  89 E3        30.31S
6HR MIN TEMP:  47; 6HR MAX TEMP:  52;

VANCOUVER WA   CLOUDY    49  43  80 CALM      30.30F
6HR MIN TEMP:  49; 6HR MAX TEMP:  53;

SCAPPOOSE      CLOUDY    47  44  90 CALM      30.29F
6HR MIN TEMP:  46; 6HR MAX TEMP:  50;

HILLSBORO      MOCLDY    47  44  90 CALM      30.28F
6HR MIN TEMP:  46; 6HR MAX TEMP:  50;

AURORA         CLOUDY    45  43  93 CALM      30.31S
6HR MIN TEMP:  45; 6HR MAX TEMP:  51;

MCMINNVILLE    CLEAR     44  42  93 CALM      30.30F
6HR MIN TEMP:  43; 6HR MAX TEMP:  53;

SALEM          CLEAR     43  40  89 SE3       30.28F
6HR MIN TEMP:  43; 6HR MAX TEMP:  51;

CORVALLIS      CLEAR     43  39  87 CALM      30.30F
EUGENE         CLEAR     42  39  89 SW5       30.30S
6HR MIN TEMP:  41; 6HR MAX TEMP:  49;

$$

ORZ021-028-291300-
SOUTHWEST OREGON


CITY           SKY/WX    TMP DP  RH WIND       PRES   REMARKS
NORTH BEND     CLOUDY    45  45 100 S5        30.31S VSB 1/4
6HR MIN TEMP:  45; 6HR MAX TEMP:  50;

BROOKINGS      CLEAR     46  46 100 NE3       30.25F
ROSEBURG       PTCLDY    44  39  82 CALM      30.31S
6HR MIN TEMP:  44; 6HR MAX TEMP:  51;

SEXTON SUMMIT  MOCLDY    46  29  51 CALM      30.27F
6HR MIN TEMP:  41; 6HR MAX TEMP:  49;

MEDFORD        MOCLDY    40  35  83 SE3       30.30R
6HR MIN TEMP:  40; 6HR MAX TEMP:  51;

$$

ORZ014>016-041-291300-
COLUMBIA GORGE


CITY           SKY/WX    TMP DP  RH WIND       PRES   REMARKS
TROUTDALE      CLOUDY    46  42  86 E3        30.29F
6HR MIN TEMP:  44; 6HR MAX TEMP:  51;

THE DALLES     PTCLDY    46  41  82 CALM      30.29F
6HR MIN TEMP:  46; 6HR MAX TEMP:  53;

$$

ORZ029>031-041-044-049-050-061>064-502-503-505>511-291300-
EASTERN OREGON


CITY           SKY/WX    TMP DP  RH WIND       PRES   REMARKS
REDMOND        CLOUDY    33  26  75 SE5       30.29F WCI  29
6HR MIN TEMP:  32; 6HR MAX TEMP:  38;

BEND           CLOUDY    34  27  75 S7        30.29S WCI  28
PRINEVILLE     MOCLDY    30  27  86 CALM      30.29F
KLAMATH FALLS  CLOUDY    31  27  85 SE5       30.27S WCI  26
6HR MIN TEMP:  30; 6HR MAX TEMP:  36;

LAKEVIEW       CLEAR     28  18  64 N8        30.28S WCI  20
HERMISTON      CLOUDY    46  38  73 CALM      30.28S
6HR MIN TEMP:  39; 6HR MAX TEMP:  47;

PENDLETON      CLOUDY    43  38  82 SE8       30.28F
6HR MIN TEMP:  40; 6HR MAX TEMP:  44;

JOHN DAY       CLEAR     38  29  70 SE7       30.31S WCI  33
MEACHAM        CLOUDY    33  31  92 CALM      30.29S
6HR MIN TEMP:  29; 6HR MAX TEMP:  33;

LA GRANDE      MOCLDY    36  25  64 CALM      30.32S
6HR MIN TEMP:  34; 6HR MAX TEMP:  39;

BAKER CITY     PTCLDY    30  27  88 CALM      30.32F
6HR MIN TEMP:  25; 6HR MAX TEMP:  37;

BURNS          PTCLDY    27  22  81 CALM      30.31S
6HR MIN TEMP:  26; 6HR MAX TEMP:  38;

ROME             N/A     26   9  48 CALM      30.30S
6HR MIN TEMP:  26; 6HR MAX TEMP:  44;

ONTARIO        CLEAR     33  27  78 W3        30.34S
6HR MIN TEMP:  32; 6HR MAX TEMP:  42;

$$


USA.gov is the U.S. government's official web portal to all federal, state and local government web resources and services.